Cortez, CO

5:59 AM MDT on March 29, 2017 (GMT -0600)
Cortez Municipal

Weather History for KCEZ - July, 2013

Change the Weather History Date:

Wednesday, July 10, 2013

  Actual Average Record
Temperature  
Mean Temperature 77 °F 71 °F  
Max Temperature 98 °F 91 °F 99 °F (2003)
Min Temperature 55 °F 52 °F 45 °F (2005)
Degree Days  
Heating Degree Days 0 0  
Month to date heating degree days 0 0  
Since 1 June heating degree days 12 75  
Since 1 July heating degree days 0 0  
Cooling Degree Days 12 6  
Month to date cooling degree days 117 53  
Year to date cooling degree days 244 116  
Since 1 June cooling degree days 244 111  
Growing Degree Days 26 (Base 50)    
Moisture  
Dew Point 41 °F    
Average Humidity 34    
Maximum Humidity 59    
Minimum Humidity 9    
Precipitation  
Precipitation 0.00 in 0.02 in 0.20 in (2006)
Month to date precipitation 0.01 0.12  
Year to date precipitation 3.34 5.74  
Sea Level Pressure  
Sea Level Pressure 29.92 in    
Wind  
Wind Speed 5 mph (South)    
Max Wind Speed 25 mph    
Max Gust Speed 36 mph    
Visibility 10 miles    
Events      
T = Trace of Precipitation, MM = Missing Value Source: NWS Daily Summary

Daily Weather History Graph

Daily Weather History Graph

Search for Another Location

Airport or City:

Trip Planner

Search our weather history database for the weather conditions in past years. The results will help you decide how hot, cold, wet, or windy it might be!

Date:

Astronomy

Jul. 10, 2013 Rise Set
Actual Time 6:02 AM MDT 8:36 PM MDT
Civil Twilight 5:32 AM MDT 9:07 PM MDT
Nautical Twilight 4:54 AM MDT 9:44 PM MDT
Astronomical Twilight 4:12 AM MDT 10:26 PM MDT
Moon 8:22 AM MDT (7/10) 9:53 PM MDT (7/10)
Length of Visible Light 15h 34m
Length of Day
14h 34m
Waxing Crescent, 5% of the Moon is Illuminated
Jul 10
Waxing Crescent
Jul 15
First Quarter
Jul 22
Full
Jul 29
Last Quarter
Aug 6
New

Hourly Weather History & Observations

Time (MDT) Temp. Dew Point Humidity Pressure Visibility Wind Dir Wind Speed Gust Speed Precip Events Conditions
12:53 AM 64.0 °F 42.1 °F 45% 29.92 in 10.0 mi ENE 4.6 mph - N/A   Clear
1:53 AM 62.1 °F 41.0 °F 46% 29.93 in 10.0 mi Calm Calm - N/A   Clear
2:53 AM 59.0 °F 41.0 °F 51% 29.94 in 10.0 mi ENE 4.6 mph - N/A   Clear
3:53 AM 59.0 °F 41.0 °F 51% 29.95 in 10.0 mi ENE 3.5 mph - N/A   Clear
4:53 AM 57.9 °F 42.1 °F 56% 29.96 in 10.0 mi Variable 3.5 mph - N/A   Clear
5:53 AM 55.9 °F 41.0 °F 57% 29.98 in 10.0 mi Calm Calm - N/A   Clear
6:53 AM 57.0 °F 43.0 °F 59% 29.99 in 10.0 mi ESE 3.5 mph - N/A   Clear
7:53 AM 69.1 °F 45.0 °F 42% 29.98 in 10.0 mi East 4.6 mph - N/A   Clear
8:53 AM 78.1 °F 46.0 °F 32% 29.99 in 10.0 mi Calm Calm - N/A   Clear
9:53 AM 84.0 °F 46.0 °F 26% 29.97 in 10.0 mi Calm Calm - N/A   Clear
10:53 AM 88.0 °F 46.0 °F 23% 29.96 in 10.0 mi SSW 5.8 mph - N/A   Clear
11:53 AM 91.9 °F 42.1 °F 18% 29.94 in 10.0 mi SSW 9.2 mph - N/A   Clear
12:53 PM 93.0 °F 36.0 °F 13% 29.93 in 10.0 mi Variable 3.5 mph - N/A   Clear
1:53 PM 91.9 °F 37.9 °F 15% 29.91 in 10.0 mi West 3.5 mph - N/A   Partly Cloudy
2:53 PM 93.9 °F 37.0 °F 14% 29.88 in 10.0 mi Variable 4.6 mph - N/A   Clear
3:53 PM 93.0 °F 39.9 °F 16% 29.87 in 10.0 mi WSW 10.4 mph - N/A   Clear
4:53 PM 96.1 °F 34.0 °F 11% 29.83 in 10.0 mi SW 9.2 mph - N/A   Clear
5:53 PM 95.0 °F 30.9 °F 10% 29.81 in 10.0 mi Calm Calm - N/A   Clear
6:53 PM 95.0 °F 28.0 °F 9% 29.81 in 10.0 mi West 4.6 mph - N/A   Clear
7:40 PM 87.8 °F 44.6 °F 22% 30.10 in 10.0 mi SSE 16.1 mph 28.8 mph N/A   Clear
7:53 PM 86.0 °F 46.0 °F 25% 29.83 in 10.0 mi SSE 28.8 mph 35.7 mph N/A   Clear
8:53 PM 80.1 °F 46.9 °F 31% 29.86 in 10.0 mi NW 10.4 mph - N/A   Clear
9:53 PM 77.0 °F 46.0 °F 33% 29.87 in 10.0 mi Calm Calm - N/A   Clear
10:53 PM 73.0 °F 46.0 °F 38% 29.89 in 10.0 mi WNW 4.6 mph - N/A   Clear
11:53 PM 70.0 °F 46.0 °F 42% 29.90 in 10.0 mi Calm Calm - N/A   Clear